This demonstration page uses our WeatherBlox Daily Observations layout. Learn more.

Left ArrowRight Arrow

39.08367, -84.50855

Hourly Observations for June 20, 2015

Temp ( °F °C ) Dew Point ( °F °C ) Humidity (%) Winds ( mph kmh ) Pressure ( in mb ) Visibility ( mi km ) Precip ( " mm )
12:53 am 00:53 Cloudy 70 21.1 69 20.6 97 97 S 5 7 29.94 1014 10 16.0934 N/A
1:53 am 01:53 Cloudy with Light Rain 70 21.1 68 20 93 93 SE 3 6 29.91 1013 10 16.0934 0.04 1.016
2:53 am 02:53 Partly Cloudy with Rain 70 21.1 68 20 93 93 VRB 3 6 29.89 1012 9 14.48406 0.02 0.508
3:50 am 03:50 Cloudy with Light Rain 70 21 70 21 100 100 NE 3 6 29.88 1012 9 14.48406 N/A
3:53 am 03:53 Cloudy with Light Rain 70 21.1 69 20.6 97 97 N N/A 29.87 1011 10 16.0934 0.03 0.762
4:53 am 04:53 Mostly Cloudy with Light Rain 70 21.1 69 20.6 97 97 NNE 3 6 29.86 1011 10 16.0934 0.06 1.524
5:53 am 05:53 Mostly Cloudy with Light Rain 70 21.1 69 20.6 97 97 NNE 3 6 29.84 1011 10 16.0934 0.04 1.016
6:34 am 06:34 Mostly Cloudy with Heavy Rain 70 21.1 69 20.6 97 97 N N/A 29.88 1012 1.75 2.816345 0.03 0.762
6:44 am 06:44 Cloudy with Rain 70 21 70 21 100 100 VRB 3 6 29.85 1011 3 4.82802 N/A
6:53 am 06:53 Cloudy with Heavy Rain 70 21.1 69 20.6 97 97 NE 5 7 29.83 1010 5 8.0467 0.05 1.27
7:22 am 07:22 Cloudy with Heavy Rain 70 21 70 21 100 100 ENE 12 19 29.83 1010 2 3.21868 N/A
7:27 am 07:27 Cloudy with Rain 70 21.1 69 20.6 97 97 ENE 8 13 29.83 1010 3 4.82802 0.04 1.016
7:53 am 07:53 Cloudy with Rain 70 21.1 69 20.6 97 97 E 7 11 29.81 1009 3 4.82802 0.08 2.032
7:57 am 07:57 Cloudy with Heavy Rain 70 21 70 21 100 100 E 8 13 29.83 1010 2 3.21868 N/A
8:33 am 08:33 Cloudy with Light Rain 70 21.1 69 20.6 97 97 ENE 6 9 29.8 1009 2 3.21868 0.06 1.524
8:48 am 08:48 Cloudy with Rain 70 21 70 21 100 100 NE 6 9 29.8 1009 2 3.21868 N/A
8:53 am 08:53 Cloudy with Heavy Rain 70 21.1 69 20.6 97 97 NE 6 9 29.78 1009 2 3.21868 0.09 2.286
9:04 am 09:04 Cloudy with Rain 70 21.1 70 21.1 100 100 VRB 3 6 29.8 1009 3 4.82802 0.02 0.508
9:10 am 09:10 Cloudy with Rain 70 21 70 21 100 100 N N/A 29.8 1009 2.5 4.02335 N/A
9:45 am 09:45 Cloudy with Light Rain 71 21.7 70 21.1 96 96 VRB 6 9 29.8 1009 2 3.21868 0.08 2.032
9:51 am 09:51 Cloudy with Rain 72 22 70 21 94 94 E 6 9 29.8 1009 2 3.21868 0.09 2.286
9:53 am 09:53 Cloudy with Heavy Rain 71 21.7 70 21.1 96 96 VRB 5 7 29.78 1008 2 3.21868 0.09 2.286
10:21 am 10:21 Cloudy with Light Rain 72 22.2 70 21.1 94 94 VRB 3 6 29.77 1008 6 9.65604 0.04 1.016
10:31 am 10:31 Cloudy with Light Rain 72 22.2 71 21.7 97 97 N N/A 29.77 1008 3 4.82802 0.05 1.27
10:38 am 10:38 Cloudy with Light Rain 72 22 72 22 100 100 N N/A 29.77 1008 5 8.0467 N/A
10:50 am 10:50 Cloudy with Light Rain 72 22 72 22 100 100 N N/A 29.77 1008 10 16.0934 0.08 2.032
10:53 am 10:53 Cloudy with Light Rain 72 22.2 71 21.7 97 97 N 3 6 29.76 1008 6 9.65604 0.08 2.032
11:19 am 11:19 Cloudy with Light Rain 73 22.8 72 22.2 96 96 N N/A 29.77 1008 10 16.0934 0.03 0.762
11:46 am 11:46 Mostly Cloudy 75 24 72 22 89 89 ENE 5 7 29.77 1008 10 16.0934 N/A
11:53 am 11:53 Cloudy 75 23.9 72 22.2 90 90 NNE 5 7 29.76 1008 10 16.0934 0.07 1.778
12:53 pm 12:53 Cloudy with Rain 75 23.9 73 22.8 94 94 N 5 7 29.76 1008 6 9.65604 0.06 1.524
1:08 pm 13:08 Cloudy with Light Rain 75 24 73 23 94 94 N 5 7 29.77 1008 10 16.0934 N/A
1:23 pm 13:23 Cloudy with Light Rain 75 23.9 73 22.8 94 94 NNW 7 11 29.77 1008 10 16.0934 0.03 0.762
1:53 pm 13:53 Cloudy with Light Rain 74 23.3 72 22.2 94 94 NNW 13 20 29.77 1008 10 16.0934 0.06 1.524
2:10 pm 14:10 Cloudy 73 23 72 22 94 94 NNW 12 19 29.8 1009 10 16.0934 N/A
2:17 pm 14:17 Cloudy 73 22.8 71 21.7 94 94 N 12 19 29.8 1009 10 16.0934 0.02 0.508
2:30 pm 14:30 Cloudy 73 23 72 22 94 94 N 13 20 29.8 1009 10 16.0934 N/A
2:53 pm 14:53 Cloudy 74 23.3 71 21.7 91 91 N 10 17 29.78 1009 10 16.0934 0.05 1.27
3:11 pm 15:11 Cloudy 75 23.9 71 21.7 88 88 N 9 15 29.8 1009 10 16.0934 N/A
3:53 pm 15:53 Mostly Cloudy 75 23.9 71 21.7 88 88 NW 5 7 29.81 1010 10 16.0934 N/A
4:30 pm 16:30 Mostly Cloudy 77 25 72 22 83 83 NW 10 17 29.83 1010 10 16.0934 N/A
4:53 pm 16:53 Mostly Cloudy 78 25.6 70 21.1 76 76 NNW 5 7 29.81 1010 10 16.0934 N/A
5:53 pm 17:53 Mostly Sunny 79 26.1 72 22.2 79 79 SW 3 6 29.8 1009 10 16.0934 N/A
6:53 pm 18:53 Mostly Cloudy 80 26.7 72 22.2 76 76 SSW 5 7 29.82 1010 10 16.0934 N/A
7:53 pm 19:53 Mostly Sunny 81 27.2 72 22.2 74 74 W 7 11 29.84 1011 10 16.0934 N/A
8:53 pm 20:53 Mostly Sunny 78 25.6 71 21.7 79 79 WNW 5 7 29.87 1011 10 16.0934 N/A
9:53 pm 21:53 Clear 72 22.2 71 21.7 97 97 SW 3 6 29.87 1011 10 16.0934 N/A
10:53 pm 22:53 Clear 76 24.4 72 22.2 88 88 W 10 17 29.9 1013 10 16.0934 N/A

Powered by AerisWeather